RYR5687 EGPH-EDLV

Flight info

Callsign RYR5687
Flight time 1h 16m
Altitude 37000
Route TLA Y96 OTBUN DCT ERKIT N110 DOLAS L603 LAMSO DCT EVELI DCT PAM P62 PISAP Z850 SOBTU SOBTU1W
Aircraft B738/M-SDE2E3FGHIRWXY/LB1

Departure

Time 2026-04-26 15:48
Airport Edinburgh Airport (EGPH)

Arrival

Time 2026-04-26 17:05
Airport Weeze (Niederrhein) Airport (EDLV)
Time Latitude Longitude Altitude Speed Heading
2026-04-26 15:20 55.94860 -3.36611 143 ft 0 kts 145°
2026-04-26 15:40 55.94865 -3.36617 142 ft 2 kts 145°
2026-04-26 15:40 55.94877 -3.36632 142 ft 2 kts 145°
2026-04-26 15:40 55.94890 -3.36648 142 ft 2 kts 148°
2026-04-26 15:41 55.94904 -3.36656 142 ft 2 kts 179°
2026-04-26 15:41 55.94919 -3.36652 142 ft 2 kts 202°
2026-04-26 15:41 55.94932 -3.36638 142 ft 2 kts 226°
2026-04-26 15:41 55.94938 -3.36626 142 ft 1 kts 240°
2026-04-26 15:42 55.94940 -3.36618 142 ft 0 kts 239°
2026-04-26 15:44 55.94939 -3.36619 142 ft 0 kts 239°
2026-04-26 15:44 55.94900 -3.36793 142 ft 11 kts 308°
2026-04-26 15:44 55.94912 -3.36934 142 ft 13 kts 242°
2026-04-26 15:45 55.94788 -3.37298 142 ft 23 kts 238°
2026-04-26 15:45 55.94696 -3.37571 142 ft 26 kts 239°
2026-04-26 15:46 55.94496 -3.38154 142 ft 28 kts 239°
2026-04-26 15:46 55.94391 -3.38463 142 ft 28 kts 239°
2026-04-26 15:46 55.94302 -3.38729 142 ft 13 kts 239°
2026-04-26 15:46 55.94279 -3.38830 142 ft 12 kts 283°
2026-04-26 15:47 55.94382 -3.38954 142 ft 14 kts 332°
2026-04-26 15:47 55.94434 -3.38906 142 ft 0 kts 59°
2026-04-26 15:47 55.94442 -3.38885 142 ft 6 kts 59°
2026-04-26 15:48 55.94596 -3.38428 142 ft 84 kts 58°
2026-04-26 15:48 55.95030 -3.37150 144 ft 155 kts 59°
2026-04-26 15:48 55.95641 -3.35349 683 ft 174 kts 58°
2026-04-26 15:48 55.96363 -3.33695 1562 ft 177 kts 42°
2026-04-26 15:49 55.97315 -3.32232 2186 ft 186 kts 39°
2026-04-26 15:49 55.98328 -3.30640 2665 ft 204 kts 41°
2026-04-26 15:49 55.99412 -3.28880 3188 ft 221 kts 41°
2026-04-26 15:49 56.00601 -3.26955 3718 ft 239 kts 41°
2026-04-26 15:50 56.01853 -3.24937 4360 ft 253 kts 41°
2026-04-26 15:50 56.03208 -3.22749 4943 ft 269 kts 41°
2026-04-26 15:50 56.04625 -3.20445 5627 ft 281 kts 43°
2026-04-26 15:50 56.05774 -3.17626 6093 ft 286 kts 69°
2026-04-26 15:51 56.06025 -3.14141 6779 ft 290 kts 97°
2026-04-26 15:51 56.05579 -3.10679 7674 ft 288 kts 117°
2026-04-26 15:51 56.04363 -3.07911 8543 ft 284 kts 143°
2026-04-26 15:51 56.02755 -3.05844 9301 ft 288 kts 150°
2026-04-26 15:52 56.01099 -3.03881 10076 ft 292 kts 149°
2026-04-26 15:52 55.99421 -3.01782 10878 ft 296 kts 147°
2026-04-26 15:52 55.97756 -2.99605 11625 ft 300 kts 148°
2026-04-26 15:52 55.96555 -2.98390 12069 ft 300 kts 162°
2026-04-26 15:53 55.93890 -2.98112 13025 ft 293 kts 198°
2026-04-26 15:53 55.92058 -2.99620 13659 ft 293 kts 218°
2026-04-26 15:53 55.90437 -3.01816 14418 ft 294 kts 216°
2026-04-26 15:53 55.88503 -3.03133 15004 ft 306 kts 188°
2026-04-26 15:54 55.86390 -3.02703 15729 ft 314 kts 166°
2026-04-26 15:54 55.84334 -3.01322 16343 ft 320 kts 161°
2026-04-26 15:54 55.82280 -2.99720 17021 ft 323 kts 160°
2026-04-26 15:54 55.80225 -2.98148 17631 ft 326 kts 161°
2026-04-26 15:55 55.78125 -2.96627 18279 ft 328 kts 162°
2026-04-26 15:55 55.75973 -2.95140 18802 ft 335 kts 163°
2026-04-26 15:55 55.73779 -2.93665 19154 ft 346 kts 163°
2026-04-26 15:55 55.71521 -2.92158 19826 ft 347 kts 163°
2026-04-26 15:56 55.69230 -2.90629 20394 ft 351 kts 163°
2026-04-26 15:56 55.66978 -2.89127 20980 ft 354 kts 163°
2026-04-26 15:56 55.64629 -2.87561 21496 ft 358 kts 163°
2026-04-26 15:56 55.62313 -2.86017 22031 ft 362 kts 163°
2026-04-26 15:57 55.59950 -2.84441 22615 ft 363 kts 163°
2026-04-26 15:57 55.57574 -2.82860 23092 ft 368 kts 163°
2026-04-26 15:57 55.55171 -2.81261 23624 ft 370 kts 163°
2026-04-26 15:57 55.53567 -2.80195 23978 ft 371 kts 163°
2026-04-26 15:58 55.50323 -2.78043 24642 ft 375 kts 164°
2026-04-26 15:58 55.47900 -2.76438 25146 ft 377 kts 164°
2026-04-26 15:58 55.45419 -2.74796 25638 ft 379 kts 164°
2026-04-26 15:58 55.42974 -2.73177 26077 ft 383 kts 163°
2026-04-26 15:59 55.40499 -2.71288 26486 ft 390 kts 158°
2026-04-26 15:59 55.38181 -2.68795 26964 ft 396 kts 148°
2026-04-26 15:59 55.36081 -2.65614 27375 ft 404 kts 139°
2026-04-26 15:59 55.34240 -2.61863 27761 ft 411 kts 130°
2026-04-26 16:00 55.32612 -2.57680 28201 ft 415 kts 126°
2026-04-26 16:00 55.31124 -2.53346 28534 ft 420 kts 123°
2026-04-26 16:00 55.29676 -2.48854 28913 ft 423 kts 123°
2026-04-26 16:00 55.28126 -2.44543 29278 ft 422 kts 130°
2026-04-26 16:01 55.26237 -2.40668 29657 ft 419 kts 140°
2026-04-26 16:01 55.24053 -2.37278 30018 ft 417 kts 146°
2026-04-26 16:01 55.21735 -2.34183 30371 ft 418 kts 150°
2026-04-26 16:01 55.19385 -2.31204 30762 ft 418 kts 150°
2026-04-26 16:02 55.17024 -2.28242 31043 ft 422 kts 150°
2026-04-26 16:02 55.14648 -2.25244 31369 ft 424 kts 150°
2026-04-26 16:02 55.12246 -2.22183 31678 ft 427 kts 150°
2026-04-26 16:02 55.10654 -2.20140 31873 ft 429 kts 149°
2026-04-26 16:03 55.07409 -2.15944 32214 ft 434 kts 149°
2026-04-26 16:03 55.04974 -2.12776 32574 ft 436 kts 149°
2026-04-26 16:03 55.02528 -2.09587 32780 ft 440 kts 149°
2026-04-26 16:03 55.00062 -2.06366 33157 ft 441 kts 149°
2026-04-26 16:04 54.97573 -2.03116 33374 ft 445 kts 149°
2026-04-26 16:04 54.95121 -1.99913 33773 ft 445 kts 149°
2026-04-26 16:04 54.92588 -1.96611 33929 ft 450 kts 149°
2026-04-26 16:04 54.90053 -1.93307 34320 ft 450 kts 149°
2026-04-26 16:05 54.87522 -1.90015 34441 ft 456 kts 149°
2026-04-26 16:05 54.84971 -1.86704 34757 ft 457 kts 149°
2026-04-26 16:05 54.82440 -1.83422 35049 ft 457 kts 149°
2026-04-26 16:05 54.79901 -1.80133 35270 ft 459 kts 148°
2026-04-26 16:06 54.77326 -1.76805 35547 ft 459 kts 148°
2026-04-26 16:06 54.74778 -1.73512 36010 ft 453 kts 148°
2026-04-26 16:06 54.72251 -1.70250 36269 ft 453 kts 148°
2026-04-26 16:06 54.69719 -1.66993 36531 ft 453 kts 148°
2026-04-26 16:07 54.67170 -1.63719 36819 ft 451 kts 148°
2026-04-26 16:07 54.64648 -1.60485 37056 ft 452 kts 148°
2026-04-26 16:07 54.62154 -1.57293 37266 ft 453 kts 148°
2026-04-26 16:08 54.57042 -1.50767 37262 ft 450 kts 147°
2026-04-26 16:08 54.52047 -1.44406 37250 ft 450 kts 148°
2026-04-26 16:09 54.46998 -1.38000 37256 ft 451 kts 147°
2026-04-26 16:09 54.41966 -1.31636 37250 ft 449 kts 148°
2026-04-26 16:10 54.36928 -1.25285 37255 ft 450 kts 148°
2026-04-26 16:10 54.31847 -1.18901 37259 ft 450 kts 148°
2026-04-26 16:11 54.26785 -1.12561 37256 ft 450 kts 148°
2026-04-26 16:11 54.21726 -1.06242 37244 ft 451 kts 148°
2026-04-26 16:12 54.16669 -0.99947 37244 ft 450 kts 148°
2026-04-26 16:12 54.09023 -0.90462 37261 ft 450 kts 148°
2026-04-26 16:13 54.03966 -0.84213 37264 ft 450 kts 148°
2026-04-26 16:13 53.98850 -0.78023 37265 ft 450 kts 149°
2026-04-26 16:14 53.93705 -0.72005 37262 ft 450 kts 149°
2026-04-26 16:15 53.85939 -0.62997 37274 ft 450 kts 149°
2026-04-26 16:15 53.80766 -0.56998 37275 ft 449 kts 149°
2026-04-26 16:16 53.73010 -0.48018 37278 ft 449 kts 149°
2026-04-26 16:16 53.67882 -0.42098 37281 ft 449 kts 149°
2026-04-26 16:17 53.62720 -0.36154 37286 ft 449 kts 149°
2026-04-26 16:17 53.57754 -0.29704 37288 ft 453 kts 139°
2026-04-26 16:18 53.51616 -0.17483 37295 ft 457 kts 129°
2026-04-26 16:19 53.45987 -0.04641 37290 ft 456 kts 129°
2026-04-26 16:20 53.40333 0.08085 37297 ft 457 kts 129°
2026-04-26 16:20 53.34588 0.20779 37295 ft 456 kts 129°
2026-04-26 16:21 53.30747 0.29197 37299 ft 456 kts 129°
2026-04-26 16:21 53.26898 0.37595 37300 ft 455 kts 129°
2026-04-26 16:22 53.23061 0.45938 37304 ft 455 kts 129°
2026-04-26 16:22 53.19215 0.54270 37302 ft 455 kts 129°
2026-04-26 16:23 53.15367 0.62580 37300 ft 456 kts 129°
2026-04-26 16:23 53.11505 0.70895 37295 ft 455 kts 130°
2026-04-26 16:24 53.07645 0.79181 37294 ft 455 kts 129°
2026-04-26 16:24 53.03785 0.87436 37288 ft 455 kts 129°
2026-04-26 16:25 52.99937 0.95796 37275 ft 454 kts 126°
2026-04-26 16:25 52.97234 1.05136 37291 ft 457 kts 105°
2026-04-26 16:26 52.96019 1.13710 37298 ft 458 kts 101°
2026-04-26 16:26 52.94701 1.25734 37301 ft 458 kts 99°
2026-04-26 16:27 52.93593 1.36074 37305 ft 458 kts 99°
2026-04-26 16:27 52.92437 1.46376 37303 ft 458 kts 100°
2026-04-26 16:28 52.91235 1.56705 37307 ft 458 kts 100°
2026-04-26 16:28 52.89999 1.67090 37309 ft 459 kts 101°
2026-04-26 16:29 52.88754 1.77419 37313 ft 458 kts 101°
2026-04-26 16:29 52.87487 1.87825 37310 ft 459 kts 101°
2026-04-26 16:30 52.86222 1.98141 37311 ft 459 kts 101°
2026-04-26 16:30 52.84946 2.08467 37315 ft 458 kts 101°
2026-04-26 16:31 52.83663 2.18774 37318 ft 459 kts 101°
2026-04-26 16:31 52.82371 2.29073 37319 ft 458 kts 101°
2026-04-26 16:32 52.81287 2.37656 37319 ft 458 kts 101°
2026-04-26 16:32 52.79758 2.49673 37330 ft 459 kts 101°
2026-04-26 16:33 52.78443 2.59928 37326 ft 458 kts 101°
2026-04-26 16:33 52.77107 2.70268 37330 ft 458 kts 101°
2026-04-26 16:34 52.75771 2.80534 37329 ft 459 kts 101°
2026-04-26 16:34 52.74428 2.90774 37324 ft 458 kts 101°
2026-04-26 16:35 52.72945 3.00934 37327 ft 459 kts 106°
2026-04-26 16:35 52.70837 3.10847 37325 ft 460 kts 110°
2026-04-26 16:36 52.68473 3.20640 37328 ft 460 kts 111°
2026-04-26 16:36 52.66101 3.30333 37324 ft 460 kts 111°
2026-04-26 16:37 52.63758 3.40126 37326 ft 460 kts 108°
2026-04-26 16:37 52.61846 3.50137 37326 ft 460 kts 104°
2026-04-26 16:38 52.60155 3.60283 37325 ft 459 kts 103°
2026-04-26 16:38 52.58470 3.70458 37326 ft 460 kts 104°
2026-04-26 16:39 52.56760 3.80536 37325 ft 460 kts 104°
2026-04-26 16:39 52.55011 3.90627 37320 ft 461 kts 105°
2026-04-26 16:40 52.53242 4.00702 37317 ft 460 kts 105°
2026-04-26 16:40 52.51467 4.10715 37315 ft 460 kts 105°
2026-04-26 16:41 52.49674 4.20773 37137 ft 459 kts 105°
2026-04-26 16:41 52.48778 4.25772 36698 ft 454 kts 104°
2026-04-26 16:41 52.47884 4.30746 36228 ft 453 kts 104°
2026-04-26 16:42 52.47001 4.35648 35759 ft 451 kts 104°
2026-04-26 16:42 52.46106 4.40610 35238 ft 451 kts 104°
2026-04-26 16:42 52.45221 4.45495 34693 ft 451 kts 104°
2026-04-26 16:42 52.44328 4.50418 34101 ft 450 kts 104°
2026-04-26 16:43 52.43442 4.55282 33550 ft 448 kts 104°
2026-04-26 16:43 52.42549 4.60179 33009 ft 445 kts 104°
2026-04-26 16:43 52.41668 4.64990 32478 ft 443 kts 104°
2026-04-26 16:43 52.40775 4.69856 31939 ft 441 kts 105°
2026-04-26 16:44 52.39896 4.74636 31410 ft 438 kts 105°
2026-04-26 16:44 52.39025 4.79360 30886 ft 436 kts 105°
2026-04-26 16:44 52.38144 4.84122 30347 ft 433 kts 105°
2026-04-26 16:44 52.37278 4.88795 29815 ft 431 kts 105°
2026-04-26 16:45 52.36415 4.93439 29295 ft 428 kts 105°
2026-04-26 16:45 52.35549 4.98090 28773 ft 424 kts 105°
2026-04-26 16:45 52.34686 5.02716 28253 ft 421 kts 105°
2026-04-26 16:45 52.33834 5.07226 27743 ft 418 kts 106°
2026-04-26 16:46 52.32867 5.11717 27239 ft 416 kts 110°
2026-04-26 16:46 52.31744 5.16016 26727 ft 413 kts 113°
2026-04-26 16:46 52.30523 5.20276 26218 ft 410 kts 115°
2026-04-26 16:46 52.29291 5.24427 25718 ft 407 kts 115°
2026-04-26 16:47 52.28050 5.28572 25220 ft 404 kts 115°
2026-04-26 16:47 52.26825 5.32682 24729 ft 401 kts 115°
2026-04-26 16:47 52.25614 5.36765 24234 ft 399 kts 115°
2026-04-26 16:47 52.24431 5.40782 23743 ft 396 kts 115°
2026-04-26 16:48 52.23243 5.44836 23267 ft 393 kts 114°
2026-04-26 16:48 52.22083 5.48805 22791 ft 391 kts 114°
2026-04-26 16:48 52.20916 5.52807 22302 ft 389 kts 114°
2026-04-26 16:48 52.19763 5.56760 21819 ft 386 kts 114°
2026-04-26 16:49 52.18599 5.60749 21336 ft 384 kts 114°
2026-04-26 16:49 52.17462 5.64640 20845 ft 381 kts 114°
2026-04-26 16:49 52.16319 5.68546 20383 ft 378 kts 115°
2026-04-26 16:49 52.15193 5.72390 19882 ft 375 kts 115°
2026-04-26 16:50 52.14091 5.76144 19443 ft 371 kts 115°
2026-04-26 16:50 52.12969 5.79963 18949 ft 368 kts 115°
2026-04-26 16:50 52.11877 5.83680 18504 ft 363 kts 115°
2026-04-26 16:50 52.10800 5.87343 18073 ft 360 kts 115°
2026-04-26 16:51 52.09721 5.91007 17601 ft 357 kts 114°
2026-04-26 16:51 52.08653 5.94630 17167 ft 353 kts 114°
2026-04-26 16:51 52.07596 5.98207 16773 ft 350 kts 114°
2026-04-26 16:51 52.06547 6.01753 16290 ft 349 kts 114°
2026-04-26 16:52 52.05488 6.05326 15860 ft 345 kts 114°
2026-04-26 16:52 52.04795 6.07663 15585 ft 343 kts 114°
2026-04-26 16:52 52.03433 6.12247 15010 ft 340 kts 114°
2026-04-26 16:52 52.02398 6.15720 14562 ft 338 kts 114°
2026-04-26 16:53 52.01381 6.19129 14141 ft 335 kts 114°
2026-04-26 16:53 52.00360 6.22540 13703 ft 332 kts 114°
2026-04-26 16:53 51.99359 6.25874 13292 ft 329 kts 114°
2026-04-26 16:53 51.98361 6.29199 12880 ft 326 kts 114°
2026-04-26 16:54 51.97371 6.32489 12461 ft 323 kts 114°
2026-04-26 16:54 51.96402 6.35708 12058 ft 320 kts 114°
2026-04-26 16:54 51.95427 6.38938 11647 ft 317 kts 114°
2026-04-26 16:54 51.94459 6.42144 11251 ft 315 kts 114°
2026-04-26 16:55 51.93505 6.45298 10856 ft 313 kts 114°
2026-04-26 16:55 51.92551 6.48450 10450 ft 310 kts 114°
2026-04-26 16:55 51.91597 6.51599 10062 ft 308 kts 114°
2026-04-26 16:55 51.90648 6.54718 9665 ft 306 kts 115°
2026-04-26 16:56 51.87978 6.59856 8896 ft 302 kts 152°
2026-04-26 16:56 51.86044 6.61076 8525 ft 298 kts 164°
2026-04-26 16:56 51.84040 6.61941 8130 ft 296 kts 166°
2026-04-26 16:57 51.82073 6.62774 7743 ft 294 kts 166°
2026-04-26 16:57 51.80123 6.63275 7373 ft 291 kts 178°
2026-04-26 16:57 51.76398 6.61581 6656 ft 279 kts 213°
2026-04-26 16:58 51.74795 6.59890 6288 ft 276 kts 215°
2026-04-26 16:58 51.73704 6.58747 6051 ft 274 kts 214°
2026-04-26 16:58 51.69985 6.54940 5233 ft 269 kts 214°
2026-04-26 16:59 51.68453 6.53359 5040 ft 253 kts 213°
2026-04-26 16:59 51.65628 6.50439 4593 ft 232 kts 213°
2026-04-26 17:00 51.62928 6.47625 3994 ft 231 kts 213°
2026-04-26 17:00 51.60225 6.44769 3146 ft 238 kts 213°
2026-04-26 17:00 51.58986 6.43025 2837 ft 231 kts 237°
2026-04-26 17:01 51.58485 6.40772 2940 ft 203 kts 273°
2026-04-26 17:01 51.58832 6.38705 2975 ft 189 kts 304°
2026-04-26 17:01 51.59530 6.36942 2723 ft 188 kts 297°
2026-04-26 17:01 51.59803 6.34883 2472 ft 189 kts 274°
2026-04-26 17:02 51.59803 6.32791 2185 ft 182 kts 272°
2026-04-26 17:02 51.59842 6.30847 1981 ft 170 kts 276°
2026-04-26 17:02 51.59907 6.28930 1716 ft 171 kts 275°
2026-04-26 17:02 51.59946 6.27042 1484 ft 168 kts 273°
2026-04-26 17:03 51.59988 6.25175 1253 ft 165 kts 274°
2026-04-26 17:03 51.60033 6.23439 1083 ft 151 kts 274°
2026-04-26 17:03 51.60069 6.21744 831 ft 147 kts 274°
2026-04-26 17:03 51.60110 6.20132 622 ft 148 kts 275°
2026-04-26 17:04 51.60149 6.18465 445 ft 148 kts 272°
2026-04-26 17:04 51.60184 6.16832 247 ft 145 kts 274°
2026-04-26 17:04 51.60223 6.15240 113 ft 133 kts 273°
2026-04-26 17:04 51.60247 6.14189 105 ft 60 kts 272°
2026-04-26 17:05 51.60263 6.13481 99 ft 63 kts 272°
2026-04-26 17:05 51.60272 6.12982 100 ft 18 kts 245°
2026-04-26 17:05 51.60133 6.12953 100 ft 20 kts 178°
2026-04-26 17:05 51.60079 6.13074 99 ft 21 kts 90°
2026-04-26 17:06 51.60075 6.13281 99 ft 19 kts 94°
2026-04-26 17:06 51.60070 6.13486 99 ft 17 kts 92°
2026-04-26 17:06 51.60066 6.13673 100 ft 15 kts 91°
2026-04-26 17:06 51.60062 6.13838 102 ft 13 kts 92°
2026-04-26 17:07 51.60059 6.13993 103 ft 15 kts 91°
2026-04-26 17:07 51.60055 6.14195 105 ft 20 kts 91°
2026-04-26 17:07 51.60051 6.14401 108 ft 11 kts 92°
2026-04-26 17:07 51.60048 6.14493 109 ft 6 kts 93°
2026-04-26 17:08 51.60046 6.14562 109 ft 6 kts 91°
2026-04-26 17:08 51.60048 6.14642 109 ft 7 kts 90°
2026-04-26 17:08 51.60046 6.14722 110 ft 7 kts 91°
2026-04-26 17:08 51.60034 6.14795 111 ft 6 kts 150°
2026-04-26 17:09 51.60000 6.14807 111 ft 4 kts 118°
2026-04-26 17:09 51.59996 6.14842 111 ft 4 kts 96°
2026-04-26 17:09 51.59995 6.14870 111 ft 0 kts 92°
2026-04-26 17:09 51.59995 6.14872 111 ft 0 kts 92°